Regional Weather Roundup
Issued by NWS

Home | Current Version | Previous Version | Graphics & Text | Print | Product List | Glossary On
Versions: 1 2 3 4 5 6 7 8 9 10 11 12 13 14 15 16 17 18 19 20 21 22 23 24 25 26 27 28 29 30 31 32 33 34 35 36 37 38 39 40 41 42 43 44 45 46 47 48 49 50
000
ASUS43 KDMX 241601
RWRIA

WEATHER ROUNDUP FOR IOWA
NATIONAL WEATHER SERVICE DES MOINES IA
1100 AM CDT FRI MAR 24 2017

NOTE: "FAIR" INDICATES FEW OR NO CLOUDS BELOW 12,000 FEET WITH NO
SIGNIFICANT WEATHER AND/OR OBSTRUCTIONS TO VISIBILITY.

* - THESE STATIONS ARE NOT NWS STATIONS...THUS NOT UNDER NWS
QUALITY CONTROL.  THEY ALSO DO NOT REPORT WEATHER SUCH
AS PRECIPITATION OR FOG.

IAZ001>003-012>014-020>022-031>034-043>046-241700-
   NORTHWEST IOWA

CITY           SKY/WX    TMP DP  RH WIND       PRES   REMARKS
CARROLL *      CLOUDY    45  45 100 N13       29.91R
CHEROKEE *     CLOUDY    41  40  97 N13       29.95R FOG
LE MARS *      CLOUDY    41  39  93 N13       29.98R
ORANGE CITY *  CLOUDY    37  37 100 N9G20     29.97R WCI  31
SHELDON *      CLOUDY    37  37 100 N18       29.95R FOG     WCI  27
SIOUX CITY     CLOUDY    42  40  92 N15       29.96R
SPENCER        CLOUDY    40  38  93 N18       29.94R FOG     WCI  31
STORM LAKE *   CLOUDY    41  39  93 NE17G23   29.92R FOG
$$

IAZ055>058-069>071-079>083-090>094-241700-
   SOUTHWEST IOWA

CITY           SKY/WX    TMP DP  RH WIND       PRES   REMARKS
ATLANTIC *     RAIN      46  46 100 NE12      29.88R VSB 1/2
AUDUBON *      DRIZZLE   45  41  87 N12G21    29.90R
CLARINDA *     CLOUDY    59  55  88 S6        29.89R
COUNCIL BLFS * CLOUDY    48  48 100 N16G23    29.88R
CRESTON *      LGT RAIN  57  55  94 SW8       29.88R
HARLAN  *      CLOUDY    45  45 100 N17       29.91S
LAMONI         CLOUDY    64  47  53 SW12      29.86R
RED OAK *      HVY RAIN  55  54  94 N8G14     29.87R
SHENANDOAH *   LGT RAIN  57  54  88 W5        29.88R
$$

IAZ047>049-059>061-072>074-084-241700-
   CENTRAL IOWA

CITY           SKY/WX    TMP DP  RH WIND       PRES   REMARKS
AMES           LGT RAIN  48  46  93 NW15      29.89R FOG
ANKENY *       CLOUDY    59  48  67 NW16G23   29.88R
BOONE *        CLOUDY    46  45  93 N14       29.89R
CHARITON *     PTSUNNY   70  46  43 SW14G25   29.85R
DES MOINES     LGT RAIN  63  50  62 W13       29.86R
GRINNELL*      CLOUDY    64  49  59 SW5       29.85R
MARSHALLTOWN   CLOUDY    52  44  74 N8        29.85R
NEWTON *       MOSUNNY   68  50  52 SW13      29.83R
PELLA *          N/A     69  47  45 SW13G18   29.85R
PERRY *        CLOUDY    47  44  88 N10       29.90R
$$

IAZ004>006-015-016-023>025-035-036-241700-
   NORTH CENTRAL IOWA

CITY           SKY/WX    TMP DP  RH WIND       PRES   REMARKS
ALGONA *       PTSUNNY   41  41 100 N17       29.93R FOG
CLARION *      CLOUDY    45  45 100 N10       29.90R
ESTHERVILLE    FOG       37  37 100 N18       29.94R VSB 3/4 WCI  27
FORT DODGE *   CLOUDY    43  37  81 N7        29.93R
MASON CITY     CLOUDY    42  40  92 N15       29.90R FOG
FOREST CITY *  CLOUDY    41  41 100 N14       29.90R FOG
WEBSTER CITY * CLOUDY    45  43  93 N10       29.89R
IOWA FALLS *   PTSUNNY   46  42  88 NW8       29.92R
$$

IAZ007>011-017>019-026>030-037>042-050>054-066-241700-
   NORTHEAST IOWA

CITY           SKY/WX    TMP DP  RH WIND       PRES   REMARKS
CEDAR RAPIDS   CLOUDY    73  50  44 SW18G28   29.84R
CHARLES CITY * CLOUDY    43  43 100 NE12G17   29.85F FOG
CLINTON *      CLOUDY    70  50  49 SW20      29.87R
DECORAH *      PTSUNNY   45  41  87 VRB7      29.88S
DUBUQUE        PTSUNNY   65  50  58 SW17G23   29.85S
MONTICELLO *   CLOUDY    68  52  56 SW12      29.85S
OELWEIN *      MOSUNNY   52  46  82 NE7       29.86F
WATERLOO       CLOUDY    51  44  77 NE7       29.83F
$$

IAZ064-065-067-068-078-241700-
   EAST CENTRAL IOWA

CITY           SKY/WX    TMP DP  RH WIND       PRES   REMARKS
DAVENPORT        N/A     70  47  43 SW29G37   29.88R
IOWA CITY      MOSUNNY   73  48  41 SW20G26   29.86S
MUSCATINE *    MOSUNNY   73  46  38 SW21G32   29.86F
QUAD CITIES    MOSUNNY   75  48  38 SW17G26   29.86S
$$

IAZ062-063-075>077-085>089-095>099-241700-
   SOUTHEAST IOWA

CITY           SKY/WX    TMP DP  RH WIND       PRES   REMARKS
BURLINGTON     SUNNY     75  47  36 SW26G35   29.88F
FAIRFIELD *    MOSUNNY   75  46  35 SW21G30   29.86S
FORT MADISON * SUNNY     75  48  38 S12G18    29.90S
KEOKUK *       SUNNY     73  48  40 S17G23    29.89S
OSKALOOSA *      N/A     68  47  47 SW16      29.85R
CENTERVILLE *    N/A     70  45  40 S22G33    29.88R
OTTUMWA        MOSUNNY   70  46  42 S15       29.85R
WASHINGTON *   PTSUNNY   73  46  38 SW23G30   29.87R
$$

ABBREVIATIONS USED IN REMARKS
   TC - TEMPERATURES IN CELSIUS
  WCI - WIND CHILL INDEX
   HX - HEAT INDEX
  VSB - VISIBILITY
$$





USA.gov is the U.S. government's official web portal to all federal, state and local government web resources and services.